SVYATOBOR 1 (RS60S)

Last updated on Sun Jun 21 2026 00:03:20 GMT+0000 (Coordinated Universal Time)

1 57187U 23091X 26171.40216926 .00007736 00000+0 29726-3 0 9991 2 57187 97.5084 235.2372 0010816 84.9279 275.3193 15.26660865164806
UTC large
Height (km)
Speed (km/s)
/
Latitude / Longitude
Inclination (degrees)
Orbital Period (minutes)
Azimuth
Elevation
Range (km)
Doppler Factor

Next 0 passes for location: London (51.5072 / 0.1276)

No passes found over London.
SVYATOBOR 1 (RS60S)